Flag for Norway Weather past 2 weeks in Tønsberg, Norway

Now
39 °F

Sprinkles. Passing clouds.


Feels Like: 33 °F
Forecast: 34 / 41 °F
Wind: 9 mph from Northwest

Location: Oseberg

Current Time: Mar 2, 2015 at 10:24:43 PM

Latest Report: Mar 2, 2015 at 9:50 PM


Visibility: N/A

Pressure: 29.27 "Hg

Humidity: 81%

Dew point: 34 °F

Location of TønsbergLocation

Historic Weather in Tønsberg — Graph

°F

Tønsberg temperature yesterday

Maximum temperature yesterday: 45 °F (at 7:20 AM)
Minimum temperature yesterday: 41 °F (at 12:50 AM)
Average temperature yesterday: 43 °F

Past Weeks' High & Low Weather Summary

 TemperatureHumidityPressure
High48 °F (Feb 18, 10:50 AM)100% (Feb 16, 7:20 PM)30.09 "Hg (Feb 16, 7:20 PM)
Low34 °F (Feb 22, 7:20 AM)52% (Feb 22, 12:50 AM)28.44 "Hg (Mar 1, 10:20 AM)
Average42 °F82%29.32 "Hg
* Reported Feb 15 8:50 PM — Mar 2 8:50 PM, Tønsberg, Weather by CustomWeather, © 2015

Note: Actual official high and low records may vary slightly from our data, if they occured in-between our weather recording intervals... More about our weather records

Advertising

Tønsberg weather history for previous 24 hours

 ConditionsComfort  
Time TempWeatherWind HumidityBarometerVisibility
8:50 PM
Mon, Mar 2
37 °FPassing clouds.9 mph81%29.27 "HgN/A
7:50 PM37 °FPassing clouds.12 mph87%29.24 "HgN/A
7:20 PM37 °FClear.18 mph87%29.24 "Hg10 mi
6:50 PM36 °FLight rain. Passing clouds.26 mph93%29.21 "HgN/A
6:20 PM36 °FSprinkles. Passing clouds.35 mph93%29.18 "Hg3 mi
5:50 PM39 °FSprinkles. Partly cloudy.13 mph81%29.18 "HgN/A
5:20 PM39 °FScattered showers. Broken clouds.21 mph81%29.18 "HgN/A
4:50 PM39 °FScattered showers. Broken clouds.28 mph81%29.18 "HgN/A
4:20 PM43 °FScattered showers. Broken clouds.18 mph57%29.18 "HgN/A
3:50 PM43 °FPartly sunny.14 mph57%29.18 "HgN/A
3:20 PM41 °FPartly sunny.13 mph61%29.18 "HgN/A
2:50 PM41 °FScattered clouds.13 mph61%29.15 "HgN/A
2:20 PM41 °FPartly sunny.8 mph61%29.15 "HgN/A
1:50 PM41 °FPartly sunny.9 mph57%29.15 "HgN/A
1:20 PM41 °FPartly sunny.9 mph57%29.15 "HgN/A
12:50 PM41 °FScattered clouds.6 mph57%29.12 "HgN/A
12:20 PM41 °FScattered clouds.7 mph61%29.12 "HgN/A
11:50 AM41 °FScattered clouds.10 mph57%29.12 "HgN/A
11:20 AM41 °FScattered clouds.12 mph57%29.09 "HgN/A
10:50 AM41 °FScattered clouds.13 mph61%29.09 "HgN/A
10:20 AM41 °FScattered clouds.13 mph61%29.06 "HgN/A
9:50 AM41 °FScattered clouds.15 mph61%29.06 "HgN/A
9:20 AM41 °FScattered clouds.20 mph61%29.03 "HgN/A
8:50 AM41 °FScattered clouds.21 mph57%29.00 "HgN/A
8:20 AM39 °FPassing clouds.23 mph65%29.00 "HgN/A
7:50 AM39 °FPassing clouds.24 mph70%28.97 "HgN/A
7:20 AM39 °FScattered clouds.28 mph70%28.97 "HgN/A
6:50 AM39 °FPassing clouds.29 mph75%28.94 "HgN/A
5:50 AM39 °FPartly cloudy.30 mph87%28.91 "HgN/A
4:50 AM41 °FSprinkles. Passing clouds.25 mph87%28.88 "Hg5 mi
3:50 AM41 °FPassing clouds.14 mph87%28.82 "HgN/A
2:50 AM41 °FSprinkles. Passing clouds.16 mph87%28.82 "HgN/A
1:50 AM43 °FPassing clouds.24 mph76%28.80 "HgN/A
12:50 AM43 °FPassing clouds.25 mph76%28.80 "HgN/A
11:50 PM
Sun, Mar 1
41 °FPassing clouds.35 mph87%28.77 "HgN/A
10:50 PM43 °FPassing clouds.31 mph81%28.77 "HgN/A
Weather by CustomWeather, © 2015

See weather overviewHow to use our weather pages